Date String (YYYY-MM-DD hh:mm:ss) UTC,Instrument flags,absolute air pressure of the measurement (hPa),sample flow rate (lpm),inlet stack bypass flow (lpm),air temperature of the measurement (°C),ambient temperature measured by the external sensor (°C),aerosol sample conditioner tube jacket temperature (°C),OPC LED temperature (°C),internal box temperature (°C),relative humidity of the measurement (%),span deviation,mass concentration of particles derived from Lorenz-Mie calculation of OPC scattering (μg/m³),mass concentration of particles derived from Lorenz-Mie calculation of OPC scattering (μg/m³),mass concentration of particles derived from Lorenz-Mie calculation of OPC scattering (μg/m³)
DateTimeUTC,F1_M11,P_M11,Q1_M11,Q2_M11,T1_M11,T2_M11,T3_M11,T4_M11,T5_M11,U1_M11,ZSPAN_M11,X2_M11,X0_M11,X1_M11
2023-07-01 02:00:00,SystemResetWarning,0833.5,5.00,000.00,029.5,028.4,000.0,037.9,031.2,32.6,0000.0,0004.00,0007.51,0003.54
2023-07-01 02:01:00,SystemResetWarning,0833.6,5.00,000.00,029.5,028.5,000.0,038.0,031.2,31.2,0000.0,0004.05,0007.63,0003.55
2023-07-01 02:02:00,SystemResetWarning,0833.5,5.01,000.00,029.6,028.5,000.0,038.0,031.2,30.7,0000.0,0004.05,0007.60,0003.56
2023-07-01 02:03:00,SystemResetWarning,0833.6,5.00,000.00,029.6,028.4,000.0,038.0,031.2,30.7,0000.0,0004.02,0007.62,0003.56
2023-07-01 02:04:00,SystemResetWarning,0833.5,4.99,000.00,029.6,026.6,000.0,037.9,031.1,29.9,0000.0,0004.00,0007.34,0003.54
2023-07-01 02:05:00,SystemResetWarning,0833.5,5.01,000.00,029.5,025.4,000.0,037.8,030.8,29.0,0000.0,0003.97,0006.91,0003.52
2023-07-01 02:06:00,SystemResetWarning,0833.5,5.00,000.00,029.4,025.2,000.0,037.8,030.6,28.9,0000.0,0003.95,0006.90,0003.51
2023-07-01 02:07:00,SystemResetWarning,0833.6,5.01,000.00,029.3,025.6,000.0,037.8,030.5,28.9,0000.0,0003.95,0006.91,0003.48
2023-07-01 02:08:00,SystemResetWarning,0833.6,5.01,000.00,029.2,026.0,000.0,037.8,030.6,27.7,0000.0,0003.95,0007.05,0003.47
2023-07-01 02:09:00,SystemResetWarning,0833.6,4.98,000.00,029.2,026.4,000.0,037.8,030.7,29.4,0000.0,0003.96,0007.22,0003.46
2023-07-01 02:10:00,SystemResetWarning,0833.7,5.01,000.00,029.2,026.8,000.0,037.8,030.7,29.7,0000.0,0003.91,0007.25,0003.44
2023-07-01 02:11:00,SystemResetWarning,0833.7,5.00,000.00,029.3,027.1,000.0,037.8,030.8,29.5,0000.0,0003.86,0007.14,0003.42
2023-07-01 02:12:00,SystemResetWarning,0833.7,5.00,000.00,029.3,027.3,000.0,037.8,030.8,29.9,0000.0,0003.78,0006.92,0003.39
2023-07-01 02:13:00,SystemResetWarning,0833.7,5.00,000.00,029.3,027.6,000.0,037.8,030.9,29.4,0000.0,0003.73,0006.76,0003.38
2023-07-01 02:14:00,SystemResetWarning,0833.7,5.00,000.00,029.3,027.7,000.0,037.9,030.9,29.0,0000.0,0003.73,0006.48,0003.37
2023-07-01 02:15:00,SystemResetWarning,0833.7,5.00,000.00,029.3,027.9,000.0,037.9,031.0,28.8,0000.0,0003.74,0006.41,0003.36
2023-07-01 02:16:00,SystemResetWarning,0833.7,5.00,000.00,029.4,028.0,000.0,037.9,031.0,28.7,0000.0,0003.72,0006.22,0003.34
2023-07-01 02:17:00,SystemResetWarning,0833.8,5.00,000.00,029.4,028.1,000.0,037.9,031.0,29.1,0000.0,0003.71,0006.12,0003.33
2023-07-01 02:18:00,SystemResetWarning,0833.8,5.00,000.00,029.4,028.2,000.0,037.9,031.1,31.6,0000.0,0003.71,0006.10,0003.33
2023-07-01 02:19:00,SystemResetWarning,0833.8,5.00,000.00,029.5,028.3,000.0,037.9,031.1,32.1,0000.0,0003.72,0006.27,0003.33
2023-07-01 02:20:00,SystemResetWarning,0833.8,5.00,000.00,029.5,028.4,000.0,037.9,031.1,32.1,0000.0,0003.70,0007.57,0003.34
2023-07-01 02:21:00,SystemResetWarning,0833.8,5.00,000.00,029.5,028.4,000.0,038.0,031.2,32.1,0000.0,0003.70,0007.68,0003.34
2023-07-01 02:22:00,SystemResetWarning,0833.8,5.00,000.00,029.6,028.5,000.0,038.0,031.2,32.2,0000.0,0003.72,0007.61,0003.35
2023-07-01 02:23:00,SystemResetWarning,0833.8,4.99,000.00,029.6,028.5,000.0,038.0,031.2,32.1,0000.0,0003.75,0007.62,0003.37
2023-07-01 02:24:00,SystemResetWarning,0833.7,5.00,000.00,029.6,028.6,000.0,038.0,031.3,32.0,0000.0,0003.81,0007.78,0003.40
2023-07-01 02:25:00,SystemResetWarning,0833.8,4.97,000.00,029.6,027.3,000.0,038.0,031.2,31.8,0000.0,0003.82,0007.79,0003.41
2023-07-01 02:26:00,SystemResetWarning,0833.8,5.00,000.00,029.6,025.7,000.0,037.9,030.9,31.8,0000.0,0003.83,0007.83,0003.43
2023-07-01 02:27:00,SystemResetWarning,0833.8,5.01,000.00,029.5,025.3,000.0,037.8,030.7,31.9,0000.0,0003.87,0008.42,0003.46
2023-07-01 02:28:00,SystemResetWarning,0833.8,5.01,000.00,029.3,025.5,000.0,037.8,030.5,32.2,0000.0,0003.95,0008.58,0003.49
2023-07-01 02:29:00,SystemResetWarning,0833.8,5.00,000.00,029.3,025.9,000.0,037.9,030.5,32.2,0000.0,0004.01,0008.78,0003.51
2023-07-01 02:30:00,SystemResetWarning,0833.8,5.00,000.00,029.2,026.3,000.0,037.9,030.6,32.1,0000.0,0004.04,0008.86,0003.54
2023-07-01 02:31:00,SystemResetWarning,0833.8,5.00,000.00,029.2,026.6,000.0,037.9,030.7,32.1,0000.0,0004.08,0008.46,0003.55
2023-07-01 02:32:00,SystemResetWarning,0833.9,5.00,000.00,029.3,027.0,000.0,037.9,030.8,32.1,0000.0,0004.10,0009.25,0003.57
2023-07-01 02:33:00,SystemResetWarning,0833.9,5.00,000.00,029.3,027.2,000.0,037.9,030.8,32.2,0000.0,0004.10,0009.84,0003.57
2023-07-01 02:34:00,SystemResetWarning,0833.9,5.01,000.00,029.3,027.5,000.0,037.9,030.8,32.3,0000.0,0004.11,0010.54,0003.57
2023-07-01 02:35:00,SystemResetWarning,0834.0,5.01,000.00,029.3,027.7,000.0,037.9,030.9,32.3,0000.0,0004.09,0010.85,0003.57
2023-07-01 02:36:00,SystemResetWarning,0834.0,5.01,000.00,029.3,027.8,000.0,037.9,030.9,32.2,0000.0,0004.11,0010.89,0003.57
2023-07-01 02:37:00,SystemResetWarning,0834.0,5.00,000.00,029.4,027.9,000.0,037.9,031.0,32.1,0000.0,0004.13,0011.05,0003.58
2023-07-01 02:38:00,SystemResetWarning,0834.0,5.00,000.00,029.4,028.1,000.0,037.9,031.0,32.0,0000.0,0004.12,0010.57,0003.58
2023-07-01 02:39:00,SystemResetWarning,0834.0,5.00,000.00,029.4,028.2,000.0,037.9,031.0,31.9,0000.0,0004.08,0010.41,0003.58
2023-07-01 02:40:00,SystemResetWarning,0834.1,5.00,000.00,029.4,028.2,000.0,037.9,031.1,31.8,0000.0,0004.08,0010.34,0003.58
2023-07-01 02:41:00,SystemResetWarning,0834.1,4.99,000.00,029.5,028.3,000.0,037.9,031.1,31.8,0000.0,0004.05,0010.66,0003.58
2023-07-01 02:42:00,SystemResetWarning,0834.1,4.99,000.00,029.5,028.4,000.0,038.0,031.1,31.9,0000.0,0004.04,0010.50,0003.57
2023-07-01 02:43:00,SystemResetWarning,0834.2,5.01,000.00,029.5,028.4,000.0,038.0,031.1,31.7,0000.0,0004.03,0009.54,0003.58
2023-07-01 02:44:00,SystemResetWarning,0834.2,5.00,000.00,029.5,028.4,000.0,038.0,031.2,31.5,0000.0,0004.05,0009.12,0003.58
2023-07-01 02:45:00,SystemResetWarning,0834.2,5.00,000.00,029.6,028.5,000.0,038.0,031.2,31.4,0000.0,0004.08,0008.73,0003.59
2023-07-01 02:46:00,SystemResetWarning,0834.2,5.00,000.00,029.6,028.5,000.0,038.0,031.2,31.4,0000.0,0004.07,0008.21,0003.59
2023-07-01 02:47:00,SystemResetWarning,0834.3,5.00,000.00,029.6,028.5,000.0,038.1,031.3,31.6,0000.0,0004.09,0008.33,0003.59
2023-07-01 02:48:00,SystemResetWarning,0834.2,5.00,000.00,029.7,028.6,000.0,038.1,031.3,31.4,0000.0,0004.13,0008.40,0003.61
2023-07-01 02:49:00,SystemResetWarning,0834.2,5.00,000.00,029.7,028.6,000.0,038.1,031.3,31.2,0000.0,0004.19,0008.49,0003.63
2023-07-01 02:50:00,SystemResetWarning,0834.2,4.99,000.00,029.7,028.4,000.0,038.1,031.3,31.3,0000.0,0004.28,0008.82,0003.65
2023-07-01 02:51:00,SystemResetWarning,0834.2,4.99,000.00,029.7,026.5,000.0,038.0,031.1,31.4,0000.0,0004.37,0009.16,0003.67
2023-07-01 02:52:00,SystemResetWarning,0834.1,5.00,000.00,029.6,025.2,000.0,037.9,030.9,31.5,0000.0,0004.41,0009.39,0003.69
2023-07-01 02:53:00,SystemResetWarning,0834.1,5.00,000.00,029.4,025.1,000.0,037.9,030.5,31.5,0000.0,0004.49,0010.56,0003.71
2023-07-01 02:54:00,SystemResetWarning,0834.2,5.02,000.00,029.3,025.5,000.0,037.9,030.4,31.3,0000.0,0004.56,0011.32,0003.72
2023-07-01 02:55:00,SystemResetWarning,0834.2,5.00,000.00,029.3,025.9,000.0,037.9,030.5,31.2,0000.0,0004.66,0013.31,0003.75
2023-07-01 02:56:00,SystemResetWarning,0834.4,4.99,000.00,029.3,026.3,000.0,037.9,030.6,31.1,0000.0,0004.75,0014.23,0003.77
2023-07-01 02:57:00,SystemResetWarning,0834.3,5.00,000.00,029.3,026.7,000.0,037.9,030.7,31.2,0000.0,0004.90,0015.14,0003.78
2023-07-01 02:58:00,SystemResetWarning,0834.5,5.01,000.00,029.3,027.0,000.0,037.9,030.7,31.1,0000.0,0005.02,0016.11,0003.80
2023-07-01 02:59:00,SystemResetWarning,0834.5,5.01,000.00,029.3,027.3,000.0,037.9,030.8,31.0,0000.0,0005.05,0016.50,0003.78
